Location: Unspecified
(43.8044°N, 11.0278°E)
Time: 15:07:57
(UTC+02:00)

Cosmos 2058 - Visible Passes

Search period start: 30 April 2016 00:00
Search period end: 10 May 2016 00:00
Orbit: 566 x 586 km, 82.5° (Epoch: 29 April)

Date Brightness Start Highest point End Pass type
(mag) Time Alt. Az. Time Alt. Az. Time Alt. Az.
01 May 6.3 04:36:24 10° E 04:37:12 10° E 04:38:00 10° ENE visible
02 May 5.9 04:38:33 10° ESE 04:40:46 14° E 04:42:59 10° NE visible
03 May 5.7 04:41:26 10° SE 04:44:22 19° E 04:47:18 10° NE visible
04 May 5.3 04:44:34 10° SE 04:47:59 24° E 04:51:24 10° NE visible
05 May 4.8 04:47:52 10° SSE 04:51:37 32° E 04:55:23 10° NNE visible
06 May 4.2 04:51:18 10° SSE 04:55:16 42° E 04:59:17 10° NNE visible
07 May 3.6 04:54:48 10° S 04:58:57 58° E 05:03:06 10° NNE visible
08 May 3.1 04:58:25 10° S 05:02:38 79° E 05:06:52 10° N visible
09 May 2.9 05:02:08 10° SSW 05:06:20 77° W 05:10:35 10° N visible
